Location: Chassagnes
(44.4047°N, 4.1657°E)
Time: 13:01:28
(UTC+00:00)

ATLAS 2AS CENTAUR R/B - Pass Details

Date: 27 October 2020
Orbit: 939 x 1273 km, 63.7° (Epoch: 23 November)

Event Time Altitude Azimuth Distance (km) Brightness Sun altitude
Rises 17:52:20 0° 319° (NW) 4,191 6.3 -13.6°
Reaches altitude 10° 17:55:49 10° 332° (NNW) 3,184 5.5 -14.2°
Maximum altitude 18:01:59 26° 26° (NNE) 2,142 4.0 -15.3°
Enters shadow 18:05:17 19° 63° (ENE) 2,428 4.0 -15.9°
